Sydney Airport

Airport
ICAO code: 
YSSY
IATA Code: 
SYD
Summary
ICAO Region: 
APAC
Territory: 
Location: 
Mascot, New South Wales
Serving: 
Sydney
Elevation: 
21 ft
Coordinates: 
Aerial View: 
33° 56' 23.368" S, 151° 10' 31.934" E
Airport BS: 
Bird Strike
Metar
Observation
YSSY 271830Z 26011KT 9999 -SHRA FEW020 BKN060 08/04 Q1029
Station
Sydney Airport
Date/Time
2022-06-27 18:30:00
Wind direction
260°
Wind speed
11 kts
Lowest cloud amount
few clouds
Temperature
8°C
Dew point
4°C
Humidity
75%
QNH
1029 hPa
Weather condition
light showers rain

International airport serving Sydney, Australia.

Climatology

Temperate Marine climate/Oceanic climate (Köppen climate classification Cfb). Moderately cool summer and comparatively warm winter

Runways

Designator Length Width Surface Rops
16L/34R 2438 45 ASP Yes/Yes
7/25 2530 45 ASP Yes/Yes
16R/34L 3962 45 ASP Yes/Yes

SKYbrary Partners:

Safety knowledge contributed by: